SCP
0 0 0 0 0 0 0 0 0 0 0 0 0 0 1 1 1 1 1 0 0 0 0 0 0 0 0 0 0 0 0 0 0 0 0 0 0 0 0 0 0 0 0 0
0 0 0 0 0 0 0 0 0 0 0 0 0 0 0 0 0 0 0 0 0 0 0 0 0 0 0 0 0 0 0 0 0 0 0 0 0 0 1 0 0 0 0 0
0 0 0 0 0 0 0 0 0 0 0 0 0 0 0 0 0 0 0 0 0 0 0 0 0 0 0 0 0 0 0 0 0 0 0 0 0 0 0 0 0 1 0 0
0 0 0 0 0 0 0 0 0 0 0 0 0 0 0 0 0 0 0 0 0 0 0 0 0 0 0 0 0 0 0 0 0 0 0 0 0 0 0 0 0 0 0 0
0 0 0 0 0 0 0 0 0 0 0 0 0 0 0 0 0 0 0 0 0 0 0 0 0 0 0 0 0 0 0 0 0 0 0 0 0 0 0 0 0 0 0 0
0 0 0 0 0 0 0 0 0 0 0 0 0 0 0 0 0 0 0 0 0 0 0 0 0 0 0 0 0 0 0 0 0 0 0 0 0 0 0 0 0 0 0 0
0 0 0 0 0 0 0 0 0 0 0 0 0 0 0 0 0 0 0 0 0 0 0 0 0 0 0 0 0 0 0 0 0 0 0 0 0 0 0 0 0 0 0 0
0 0 0 0 0 0 0 0 0 0 0 0 0 0 0 0 0 0 0 0 0 0 0 0 0 0 0 0 0 0 0 0 0 0 0 0 0 0 0 0 0 0 0 0
0 0 0 0 0 0 0 0 0 0 0 0 0 0 0 0 0 0 0 0 0 0 0 0 0 0 0 0 0 0 0 0 0 0 0 0 0 0 0 0 0 0 0 0
0 0 0 0 0 0 0 0 0 0 0 0 0 0 0 0 0 0 0 0 0 0 0 0 0 0 0 0 0 0 0 0 0 0 0 0 0 0 0 0 0 0 0 0
0 0 0 0 0 0 0 0 0 0 0 0 0 0 0 0 0 0 0 0 0 0 0 0 0 0 0 0 0 0 0 0 0 0 0 0 0 0 0 0 0 0 0 0
0 0 0 0 0 0 0 0 0 0 0 0 0 0 0 0 0 0 0 0 0 0 0 0 0 0 0 0 0 0 0 0 0 0 0 0 0 0 0 0 0 0 0 0
0 0 0 0 0 0 0 0 0 0 0 0 0 0 0 0 0 0 0 0 0 0 0 0 0 0 0 0 0 0 0 0 0 0 0 0 0 0 -0 -0 0 0 0 0
0 0 0 0 0 0 0 0 0 0 0 0 0 0 0 0 0 0 0 0 0 0 0 0 0 0 0 0 0 0 0 0 0 0 0 0 0 0 0 0 0 0 0 0
0 0 0 0 0 0 0 0 0 0 0 0 0 0 0 0 0 0 0 0 0 0 0 0 0 0 0 0 0 0 0 0 0 0 0 0 0 0 0 0 0 0 0 0
0 0 0 0 0 0 0 0 0 0 0 0 0 0 0 0 0 0 0 0 0 0 0 0 0 0 0 0 0 0 0 0 0 0 0 0 0 0 0 0 0 0 0 0
0 0 0 0 0 0 0 0 0 0 0 0 0 0 0 0 0 0 0 0 0 0 0 0 0 0 0 0 0 0 0 0 -0 -0 -0 -0 0 0 0 0 0 0 0 0
0 0 0 0 0 0 0 0 0 0 0 0 0 0 0 0 0 0 0 0 0 0 0 0 0 0 0 0 0 0 0 0 0 0 0 0 0 0 0 0 0 0 0 0
0 0 0 0 0 0 0 0 0 0 0 0 0 0 0 0 0 0 0 0 0 0 0 0 0 0 0 0 0 0 0 0 0 0 0 0 0 -0 -0 0 0 0 0 0
0 0 0 0 0 0 0 0 0 0 0 0 0 0 0 0 0 0 0 0 0 0 0 0 0 0 0 0 0 0 0 0 0 0 0 0 0 0 0 0 0 0 0 0
0 0 0 0 0 0 0 0 0 0 0 0 0 0 0 0 0 0 0 0 0 0 0 0 0 0 0 0 0 0 0 0 0 0 0 0 0 0 0 0 0 0 0 0
0 0 0 0 0 0 0 0 0 0 0 0 0 0 0 0 0 0 0 0 0 0 0 0 0 0 0 0 0 0 0 0 0 0 0 0 0 0 0 0 0 -0 -0 0
0 0 0 0 0 0 0 0 0 0 0 0 -0 -0 0 0 0 0 0 0 0 0 0 0 0 0 0 0 0 0 0 0 0 0 0 0 0 -0 0 0 0 0 -0 0
0 0 0 0 0 0 0 0 0 0 0 -0 -0 0 0 0 0 0 0 0 0 0 0 0 0 0 0 0 0 0 0 0 0 0 0 0 0 0 0 0 -0 0 -0 -0
0 0 0 0 0 0 0 0 0 -0 -0 -0 -0 0 0 0 0 0 0 0 0 0 0 0 0 0 0 0 0 0 0 0 0 0 0 0 0 0 0 0 0 0 -0 -0
0 0 0 0 0 0 0 0 -0 -0 -0 0 0 0 0 0 0 0 0 0 0 0 0 0 0 0 0 0 0 0 0 0 0 0 0 0 0 0 0 0 0 0 0 0
0 0 0 0 -0 0 0 0 0 0 0 0 0 0 0 0 0 0 0 0 0 0 0 0 0 0 0 0 0 0 0 0 0 0 0 0 0 0 0 0 0 0 0 0
Wind_Speed_500mb
8 10 13 6 5 4 4 2 8 10 10 6 8 7 15 21 24 24 24 19 19 19 17 18 16 16 20 24 27 30 33 38 39 33 31 36 42 37 34 31 29 31 31 28
10 16 16 11 11 9 9 7 10 14 9 4 17 39 45 42 46 43 36 30 24 23 20 20 21 19 19 20 28 32 40 47 49 46 49 45 41 41 44 46 44 39 40 41
3 7 7 7 7 3 6 6 5 8 8 4 14 30 33 35 34 32 27 22 21 24 27 29 30 33 35 36 40 39 37 37 43 50 53 56 52 50 45 44 41 46 41 44
6 7 2 8 5 15 15 8 9 20 11 16 27 33 33 28 24 21 18 22 28 32 34 35 38 40 42 42 44 43 43 44 46 50 58 60 62 58 56 53 50 46 40 38
9 5 4 7 12 8 7 3 6 14 19 31 35 29 21 15 14 14 16 21 27 33 39 44 46 48 49 51 53 53 52 52 50 49 52 56 62 65 65 65 63 59 53 48
6 11 13 9 4 8 13 4 21 22 20 14 17 3 6 4 4 12 20 28 38 44 45 45 44 42 42 42 42 42 42 46 53 60 61 61 59 62 69 70 70 69 66 65
4 5 9 8 5 16 9 12 32 23 16 11 7 5 9 3 13 23 32 37 39 39 41 42 43 40 42 42 42 44 47 48 49 52 53 59 62 63 58 55 58 67 70 74
6 6 10 12 10 13 9 30 31 21 13 11 11 5 4 13 20 27 33 36 33 36 41 44 43 45 52 55 56 56 56 60 60 57 55 53 55 60 61 70 73 78 80 82
10 8 3 6 8 15 28 38 23 18 14 10 10 3 7 15 23 29 31 31 27 32 39 40 37 41 44 50 55 63 66 65 63 61 58 55 56 57 56 57 63 71 76 79
6 5 7 26 30 24 25 25 21 16 14 9 3 5 13 20 25 22 24 24 28 33 38 39 43 46 50 58 68 75 70 67 65 62 59 58 56 54 54 53 52 52 54 62
2 2 9 12 26 31 29 25 22 16 8 4 9 13 14 16 18 19 20 22 30 36 42 48 51 54 60 69 71 68 69 70 68 65 62 59 50 54 46 49 48 52 53 54
12 35 14 27 35 30 27 24 15 6 3 8 12 13 13 14 16 17 22 29 35 39 44 49 51 55 66 72 66 65 70 70 64 61 58 56 53 44 37 38 39 37 48 57
8 46 21 41 34 29 24 19 10 3 4 9 14 14 14 13 18 24 30 35 41 45 47 48 54 58 69 70 62 61 66 60 59 56 54 49 44 41 42 35 37 44 44 42
44 52 40 41 29 29 19 14 8 5 10 17 15 14 12 14 16 23 32 40 44 46 48 50 53 58 69 68 62 57 54 53 55 53 50 43 38 32 29 37 45 48 31 29
54 17 32 36 38 29 18 11 9 13 18 19 17 12 12 14 18 24 29 38 46 47 51 52 52 55 63 72 69 56 52 51 51 46 44 43 38 33 31 35 36 38 39 32
31 27 36 38 33 24 16 11 12 19 24 22 18 11 11 14 19 23 29 37 48 53 51 54 54 52 56 58 65 58 57 53 50 48 45 41 35 33 30 32 33 35 35 33
50 42 39 35 29 22 16 14 18 26 26 17 14 9 10 12 10 17 26 34 40 46 43 51 53 54 50 51 51 58 60 63 65 65 60 54 48 45 40 36 35 31 29 26
15 16 19 13 23 21 18 24 26 26 21 13 7 8 12 20 20 22 26 30 36 44 42 46 52 52 52 53 54 53 55 57 60 65 68 70 66 58 48 42 40 36 34 29
21 27 23 20 16 14 23 26 25 23 15 9 6 6 11 16 21 24 25 29 36 48 51 50 50 52 54 55 55 55 55 55 55 55 58 64 70 75 78 71 58 48 40 35
29 25 22 18 17 21 26 24 26 19 13 10 10 7 2 10 17 20 22 28 38 44 52 57 59 56 57 56 55 55 55 55 56 56 58 58 57 60 61 65 72 74 68 60
30 25 19 18 25 27 24 23 20 16 10 7 8 12 5 9 10 17 21 27 32 37 43 51 59 62 60 58 56 55 55 55 55 55 56 57 57 56 59 61 63 66 67 72
29 25 21 27 33 33 30 27 21 14 8 6 5 7 9 9 13 14 16 25 30 34 38 41 47 53 58 59 58 57 55 54 53 52 53 53 55 56 57 57 57 57 59 61
28 22 26 33 32 29 24 19 15 10 8 9 6 7 8 9 14 19 23 29 35 37 38 39 38 42 48 54 58 56 56 56 55 54 51 50 50 51 52 53 54 56 55 54
28 25 32 30 27 22 16 13 12 9 4 2 3 9 15 19 20 18 28 31 33 35 36 36 40 38 39 44 52 56 53 53 55 55 54 51 48 47 47 48 48 49 49 49
28 36 33 26 22 16 10 6 4 10 11 3 7 14 19 22 28 28 25 27 34 36 35 29 33 40 41 40 41 47 51 51 50 51 53 54 54 52 49 47 47 47 47 48
36 31 27 19 15 12 11 8 11 14 9 9 14 16 16 25 31 21 26 31 33 32 26 29 30 29 34 41 41 39 42 46 48 48 48 49 51 53 53 51 50 49 48 48
30 25 19 19 22 20 13 9 8 6 13 19 25 27 19 18 22 25 26 26 30 30 31 32 37 39 38 36 37 38 36 38 43 47 48 47 46 47 49 51 53 52 52 51
Wind_Direction_500mb
57 84 80 80 4 52 9 184 152 194 145 344 328 345 85 94 79 67 54 46 25 6 1 360 353 336 314 314 291 280 289 294 293 295 295 301 310 308 313 315 317 314 306 299
53 50 93 72 32 47 55 89 68 113 65 317 76 89 83 83 85 76 66 61 49 38 26 16 359 347 336 320 327 282 273 279 278 283 291 286 283 278 282 293 296 296 292 288
156 22 56 24 334 8 50 19 164 148 160 170 57 66 72 77 76 69 53 35 19 8 357 349 335 322 304 297 293 292 291 289 271 271 274 273 275 280 281 284 286 292 272 270
110 36 142 278 14 107 106 34 61 108 109 113 108 93 81 72 68 56 28 4 353 340 332 322 311 301 296 295 289 288 286 282 279 274 270 265 265 264 268 273 273 275 273 276
112 81 324 304 242 203 136 345 357 126 137 136 116 95 56 48 38 19 355 341 329 326 322 316 312 310 307 301 295 289 284 280 277 277 274 269 266 264 262 263 264 266 269 273
116 126 191 244 171 165 124 272 191 173 177 170 160 182 202 135 16 349 340 333 327 323 323 322 321 317 317 318 321 319 316 306 293 282 277 276 271 261 261 259 257 256 258 260
112 143 288 239 160 155 104 236 168 173 162 157 146 146 135 343 327 330 330 331 329 329 333 337 335 330 327 332 331 324 318 314 314 311 297 281 275 270 266 265 264 259 258 257
96 93 255 171 110 158 182 140 152 157 143 109 107 129 287 310 325 330 330 329 330 335 339 340 333 326 326 329 326 320 314 308 309 310 303 295 287 277 273 272 272 271 270 265
168 205 295 228 245 169 152 147 145 146 144 158 161 199 319 328 332 334 339 344 342 346 343 334 332 335 342 341 337 331 322 315 308 296 288 293 294 289 279 274 273 271 272 271
96 291 55 122 133 143 148 146 147 147 152 153 123 353 334 338 344 351 350 346 352 354 346 354 351 349 348 343 337 335 332 329 327 317 302 286 281 285 288 283 286 287 282 277
58 298 119 169 158 147 141 143 143 134 117 46 355 347 354 3 357 360 358 358 2 353 349 352 352 352 350 346 345 343 338 334 330 326 321 316 301 272 280 284 284 284 282 282
213 188 165 170 159 156 153 149 143 129 54 359 1 18 33 32 29 23 16 12 7 360 357 355 354 354 355 352 349 346 341 340 335 329 324 320 315 302 264 282 288 285 289 276
166 160 153 151 158 163 163 152 142 115 43 50 60 61 74 74 62 46 33 22 15 9 3 1 1 1 358 358 353 351 347 343 342 340 335 327 317 313 290 290 291 297 294 294
150 144 127 151 159 161 160 150 149 117 103 95 92 104 96 62 37 26 21 18 13 9 6 4 4 3 4 3 359 355 353 359 358 355 352 346 338 331 309 298 303 304 309 310
150 143 164 160 157 157 165 163 158 140 133 128 129 111 83 57 37 29 25 19 15 11 10 8 4 5 5 6 6 357 360 1 1 3 5 5 6 6 2 344 320 308 310 305
155 148 153 158 159 165 176 186 184 150 144 139 129 108 75 52 41 32 23 15 11 9 9 10 11 8 5 8 15 17 21 18 9 6 5 5 358 350 343 340 339 341 345 342
141 140 154 162 172 179 184 173 158 147 145 140 125 88 43 23 8 15 13 12 9 7 8 12 13 14 8 10 14 12 24 30 32 28 22 14 4 359 357 351 349 346 344 349
136 145 159 170 183 183 173 161 154 151 143 136 109 60 45 36 27 20 8 6 8 14 16 16 17 15 15 15 15 9 17 21 23 30 33 33 28 17 6 0 356 352 344 333
158 157 161 165 175 175 160 157 156 151 148 125 102 75 48 39 24 15 19 21 20 20 22 21 20 18 18 18 17 17 20 21 24 25 26 34 39 39 35 29 25 15 6 2
159 157 156 159 154 154 153 148 151 147 139 108 71 28 352 31 34 37 32 23 24 21 19 20 22 20 19 17 16 16 20 21 22 23 25 26 27 30 35 35 32 33 33 34
158 157 152 152 148 144 144 142 141 140 128 96 61 30 69 27 12 10 8 13 18 19 19 21 24 23 19 16 14 15 16 18 20 21 22 22 23 25 27 31 30 26 25 26
160 157 154 152 147 142 137 133 132 134 134 93 78 37 18 357 3 7 360 3 3 357 1 10 16 21 21 18 16 16 15 15 15 17 18 19 21 22 23 24 24 25 21 22
157 153 154 150 148 146 149 153 149 140 127 119 81 35 18 5 352 350 353 352 350 350 347 346 356 4 12 16 16 16 16 16 16 15 14 13 15 16 18 21 23 23 22 19
154 153 151 150 157 168 175 192 209 215 231 261 340 326 323 324 335 336 332 337 339 338 341 343 337 341 351 1 9 12 14 15 17 16 15 13 12 12 12 12 14 16 18 18
156 155 158 162 166 164 184 209 180 173 169 199 312 322 325 326 335 325 320 333 340 337 338 337 338 337 332 339 351 2 8 10 11 13 15 15 14 13 10 8 8 8 10 11
163 168 175 181 180 171 171 133 140 176 219 277 302 314 329 346 348 347 335 330 343 347 355 354 351 345 343 336 333 340 352 359 3 5 6 8 11 13 13 10 7 5 5 5
172 182 191 206 203 196 179 179 207 256 291 301 311 330 312 326 339 339 350 352 356 2 357 352 351 357 356 351 349 339 332 341 350 355 357 359 360 3 6 9 10 8 5 3
Wind_Speed_850mb
8 10 13 6 5 4 4 2 8 10 10 6 8 7 15 21 24 24 24 19 19 19 17 18 16 16 20 24 27 30 33 38 39 33 31 36 42 37 34 31 29 31 31 28
10 16 16 11 11 9 9 7 10 14 9 4 17 39 45 42 46 43 36 30 24 23 20 20 21 19 19 20 28 32 40 47 49 46 49 45 41 41 44 46 44 39 40 41
3 7 7 7 7 3 6 6 5 8 8 4 14 30 33 35 34 32 27 22 21 24 27 29 30 33 35 36 40 39 37 37 43 50 53 56 52 50 45 44 41 46 41 44
6 7 2 8 5 15 15 8 9 20 11 16 27 33 33 28 24 21 18 22 28 32 34 35 38 40 42 42 44 43 43 44 46 50 58 60 62 58 56 53 50 46 40 38
9 5 4 7 12 8 7 3 6 14 19 31 35 29 21 15 14 14 16 21 27 33 39 44 46 48 49 51 53 53 52 52 50 49 52 56 62 65 65 65 63 59 53 48
6 11 13 9 4 8 13 4 21 22 20 14 17 3 6 4 4 12 20 28 38 44 45 45 44 42 42 42 42 42 42 46 53 60 61 61 59 62 69 70 70 69 66 65
4 5 9 8 5 16 9 12 32 23 16 11 7 5 9 3 13 23 32 37 39 39 41 42 43 40 42 42 42 44 47 48 49 52 53 59 62 63 58 55 58 67 70 74
6 6 10 12 10 13 9 30 31 21 13 11 11 5 4 13 20 27 33 36 33 36 41 44 43 45 52 55 56 56 56 60 60 57 55 53 55 60 61 70 73 78 80 82
10 8 3 6 8 15 28 38 23 18 14 10 10 3 7 15 23 29 31 31 27 32 39 40 37 41 44 50 55 63 66 65 63 61 58 55 56 57 56 57 63 71 76 79
6 5 7 26 30 24 25 25 21 16 14 9 3 5 13 20 25 22 24 24 28 33 38 39 43 46 50 58 68 75 70 67 65 62 59 58 56 54 54 53 52 52 54 62
2 2 9 12 26 31 29 25 22 16 8 4 9 13 14 16 18 19 20 22 30 36 42 48 51 54 60 69 71 68 69 70 68 65 62 59 50 54 46 49 48 52 53 54
12 35 14 27 35 30 27 24 15 6 3 8 12 13 13 14 16 17 22 29 35 39 44 49 51 55 66 72 66 65 70 70 64 61 58 56 53 44 37 38 39 37 48 57
8 46 21 41 34 29 24 19 10 3 4 9 14 14 14 13 18 24 30 35 41 45 47 48 54 58 69 70 62 61 66 60 59 56 54 49 44 41 42 35 37 44 44 42
44 52 40 41 29 29 19 14 8 5 10 17 15 14 12 14 16 23 32 40 44 46 48 50 53 58 69 68 62 57 54 53 55 53 50 43 38 32 29 37 45 48 31 29
54 17 32 36 38 29 18 11 9 13 18 19 17 12 12 14 18 24 29 38 46 47 51 52 52 55 63 72 69 56 52 51 51 46 44 43 38 33 31 35 36 38 39 32
31 27 36 38 33 24 16 11 12 19 24 22 18 11 11 14 19 23 29 37 48 53 51 54 54 52 56 58 65 58 57 53 50 48 45 41 35 33 30 32 33 35 35 33
50 42 39 35 29 22 16 14 18 26 26 17 14 9 10 12 10 17 26 34 40 46 43 51 53 54 50 51 51 58 60 63 65 65 60 54 48 45 40 36 35 31 29 26
15 16 19 13 23 21 18 24 26 26 21 13 7 8 12 20 20 22 26 30 36 44 42 46 52 52 52 53 54 53 55 57 60 65 68 70 66 58 48 42 40 36 34 29
21 27 23 20 16 14 23 26 25 23 15 9 6 6 11 16 21 24 25 29 36 48 51 50 50 52 54 55 55 55 55 55 55 55 58 64 70 75 78 71 58 48 40 35
29 25 22 18 17 21 26 24 26 19 13 10 10 7 2 10 17 20 22 28 38 44 52 57 59 56 57 56 55 55 55 55 56 56 58 58 57 60 61 65 72 74 68 60
30 25 19 18 25 27 24 23 20 16 10 7 8 12 5 9 10 17 21 27 32 37 43 51 59 62 60 58 56 55 55 55 55 55 56 57 57 56 59 61 63 66 67 72
29 25 21 27 33 33 30 27 21 14 8 6 5 7 9 9 13 14 16 25 30 34 38 41 47 53 58 59 58 57 55 54 53 52 53 53 55 56 57 57 57 57 59 61
28 22 26 33 32 29 24 19 15 10 8 9 6 7 8 9 14 19 23 29 35 37 38 39 38 42 48 54 58 56 56 56 55 54 51 50 50 51 52 53 54 56 55 54
28 25 32 30 27 22 16 13 12 9 4 2 3 9 15 19 20 18 28 31 33 35 36 36 40 38 39 44 52 56 53 53 55 55 54 51 48 47 47 48 48 49 49 49
28 36 33 26 22 16 10 6 4 10 11 3 7 14 19 22 28 28 25 27 34 36 35 29 33 40 41 40 41 47 51 51 50 51 53 54 54 52 49 47 47 47 47 48
36 31 27 19 15 12 11 8 11 14 9 9 14 16 16 25 31 21 26 31 33 32 26 29 30 29 34 41 41 39 42 46 48 48 48 49 51 53 53 51 50 49 48 48
30 25 19 19 22 20 13 9 8 6 13 19 25 27 19 18 22 25 26 26 30 30 31 32 37 39 38 36 37 38 36 38 43 47 48 47 46 47 49 51 53 52 52 51
Wind_Direction_850mb
57 84 80 80 4 52 9 184 152 194 145 344 328 345 85 94 79 67 54 46 25 6 1 360 353 336 314 314 291 280 289 294 293 295 295 301 310 308 313 315 317 314 306 299
53 50 93 72 32 47 55 89 68 113 65 317 76 89 83 83 85 76 66 61 49 38 26 16 359 347 336 320 327 282 273 279 278 283 291 286 283 278 282 293 296 296 292 288
156 22 56 24 334 8 50 19 164 148 160 170 57 66 72 77 76 69 53 35 19 8 357 349 335 322 304 297 293 292 291 289 271 271 274 273 275 280 281 284 286 292 272 270
110 36 142 278 14 107 106 34 61 108 109 113 108 93 81 72 68 56 28 4 353 340 332 322 311 301 296 295 289 288 286 282 279 274 270 265 265 264 268 273 273 275 273 276
112 81 324 304 242 203 136 345 357 126 137 136 116 95 56 48 38 19 355 341 329 326 322 316 312 310 307 301 295 289 284 280 277 277 274 269 266 264 262 263 264 266 269 273
116 126 191 244 171 165 124 272 191 173 177 170 160 182 202 135 16 349 340 333 327 323 323 322 321 317 317 318 321 319 316 306 293 282 277 276 271 261 261 259 257 256 258 260
112 143 288 239 160 155 104 236 168 173 162 157 146 146 135 343 327 330 330 331 329 329 333 337 335 330 327 332 331 324 318 314 314 311 297 281 275 270 266 265 264 259 258 257
96 93 255 171 110 158 182 140 152 157 143 109 107 129 287 310 325 330 330 329 330 335 339 340 333 326 326 329 326 320 314 308 309 310 303 295 287 277 273 272 272 271 270 265
168 205 295 228 245 169 152 147 145 146 144 158 161 199 319 328 332 334 339 344 342 346 343 334 332 335 342 341 337 331 322 315 308 296 288 293 294 289 279 274 273 271 272 271
96 291 55 122 133 143 148 146 147 147 152 153 123 353 334 338 344 351 350 346 352 354 346 354 351 349 348 343 337 335 332 329 327 317 302 286 281 285 288 283 286 287 282 277
58 298 119 169 158 147 141 143 143 134 117 46 355 347 354 3 357 360 358 358 2 353 349 352 352 352 350 346 345 343 338 334 330 326 321 316 301 272 280 284 284 284 282 282
213 188 165 170 159 156 153 149 143 129 54 359 1 18 33 32 29 23 16 12 7 360 357 355 354 354 355 352 349 346 341 340 335 329 324 320 315 302 264 282 288 285 289 276
166 160 153 151 158 163 163 152 142 115 43 50 60 61 74 74 62 46 33 22 15 9 3 1 1 1 358 358 353 351 347 343 342 340 335 327 317 313 290 290 291 297 294 294
150 144 127 151 159 161 160 150 149 117 103 95 92 104 96 62 37 26 21 18 13 9 6 4 4 3 4 3 359 355 353 359 358 355 352 346 338 331 309 298 303 304 309 310
150 143 164 160 157 157 165 163 158 140 133 128 129 111 83 57 37 29 25 19 15 11 10 8 4 5 5 6 6 357 360 1 1 3 5 5 6 6 2 344 320 308 310 305
155 148 153 158 159 165 176 186 184 150 144 139 129 108 75 52 41 32 23 15 11 9 9 10 11 8 5 8 15 17 21 18 9 6 5 5 358 350 343 340 339 341 345 342
141 140 154 162 172 179 184 173 158 147 145 140 125 88 43 23 8 15 13 12 9 7 8 12 13 14 8 10 14 12 24 30 32 28 22 14 4 359 357 351 349 346 344 349
136 145 159 170 183 183 173 161 154 151 143 136 109 60 45 36 27 20 8 6 8 14 16 16 17 15 15 15 15 9 17 21 23 30 33 33 28 17 6 0 356 352 344 333
158 157 161 165 175 175 160 157 156 151 148 125 102 75 48 39 24 15 19 21 20 20 22 21 20 18 18 18 17 17 20 21 24 25 26 34 39 39 35 29 25 15 6 2
159 157 156 159 154 154 153 148 151 147 139 108 71 28 352 31 34 37 32 23 24 21 19 20 22 20 19 17 16 16 20 21 22 23 25 26 27 30 35 35 32 33 33 34
158 157 152 152 148 144 144 142 141 140 128 96 61 30 69 27 12 10 8 13 18 19 19 21 24 23 19 16 14 15 16 18 20 21 22 22 23 25 27 31 30 26 25 26
160 157 154 152 147 142 137 133 132 134 134 93 78 37 18 357 3 7 360 3 3 357 1 10 16 21 21 18 16 16 15 15 15 17 18 19 21 22 23 24 24 25 21 22
157 153 154 150 148 146 149 153 149 140 127 119 81 35 18 5 352 350 353 352 350 350 347 346 356 4 12 16 16 16 16 16 16 15 14 13 15 16 18 21 23 23 22 19
154 153 151 150 157 168 175 192 209 215 231 261 340 326 323 324 335 336 332 337 339 338 341 343 337 341 351 1 9 12 14 15 17 16 15 13 12 12 12 12 14 16 18 18
156 155 158 162 166 164 184 209 180 173 169 199 312 322 325 326 335 325 320 333 340 337 338 337 338 337 332 339 351 2 8 10 11 13 15 15 14 13 10 8 8 8 10 11
163 168 175 181 180 171 171 133 140 176 219 277 302 314 329 346 348 347 335 330 343 347 355 354 351 345 343 336 333 340 352 359 3 5 6 8 11 13 13 10 7 5 5 5
172 182 191 206 203 196 179 179 207 256 291 301 311 330 312 326 339 339 350 352 356 2 357 352 351 357 356 351 349 339 332 341 350 355 357 359 360 3 6 9 10 8 5 3